This demonstration page uses our WeatherBlox Daily Observations layout. Learn more.

Left ArrowRight Arrow

39.01783, -85.05884

Hourly Observations for October 14, 2019

Temp ( °F °C ) Dew Point ( °F °C ) Humidity (%) Winds ( mph kmh ) Pressure ( in mb ) Visibility ( mi km ) Precip ( " mm )
12:52 am 00:52 Clear 50 10 37 2.8 61 61 SSW 5 7 29.96 1015 10 16 0.00 0.00
1:52 am 01:52 Clear 49 9.4 38 3.3 66 66 SSW 7 11 29.97 1015 10 16 0.00 0.00
2:52 am 02:52 Clear 46 7.8 37 2.8 71 71 SSW 7 11 29.97 1015 10 16 0.00 0.00
3:52 am 03:52 Clear 46 7.8 37 2.8 71 71 SSW 6 9 29.98 1015 10 16 0.00 0.00
4:52 am 04:52 Clear 47 8.3 38 3.3 71 71 SW 5 7 29.98 1015 10 16 0.00 0.00
5:52 am 05:52 Clear 45 7.2 37 2.8 74 74 WSW 5 7 30.01 1016 10 16 0.00 0.00
6:52 am 06:52 Clear 45 7.2 37 2.8 74 74 SW 6 9 30.03 1017 10 16 0.00 0.00
7:52 am 07:52 Sunny 44 6.7 37 2.8 76 76 SW 5 7 30.05 1018 10 16 0.00 0.00
8:52 am 08:52 Sunny 44 6.7 40 4.4 85 85 S 3 6 30.08 1019 10 16 0.00 0.00
9:52 am 09:52 Sunny 51 10.6 40 4.4 66 66 WSW 5 7 30.10 1019 10 16 0.00 0.00
10:52 am 10:52 Sunny 56 13.3 38 3.3 51 51 WSW 7 11 30.10 1019 10 16 0.00 0.00
11:52 am 11:52 Sunny 62 16.7 32 0 32 32 WSW 9 15 30.10 1019 10 16 0.00 0.00
12:52 pm 12:52 Sunny 63 17.2 33 0.6 33 33 WSW 9 15 30.09 1019 10 16 0.00 0.00
1:52 pm 13:52 Sunny 65 18.3 32 0 29 29 W 8 13 30.08 1019 10 16 0.00 0.00
2:52 pm 14:52 Sunny 67 19.4 33 0.6 28 28 W 8 13 30.06 1018 10 16 0.00 0.00
3:52 pm 15:52 Sunny 69 20.6 33 0.6 26 26 W 12 19 30.05 1018 10 16 0.00 0.00
4:52 pm 16:52 Sunny 68 20 32 0 26 26 WSW 10 17 30.05 1018 10 16 0.00 0.00
5:52 pm 17:52 Sunny 66 18.9 32 0 28 28 W 9 15 30.06 1018 10 16 0.00 0.00
6:52 pm 18:52 Mostly Sunny 62 16.7 31 -0.6 31 31 W 6 9 30.06 1018 10 16 0.00 0.00
7:52 pm 19:52 Clear 59 15 31 -0.6 35 35 W 3 6 30.08 1019 10 16 0.00 0.00
8:52 pm 20:52 Clear 58 14.4 31 -0.6 36 36 Calm 30.09 1019 10 16 0.00 0.00
9:52 pm 21:52 Clear 50 10 32 0 50 50 Calm 30.09 1019 10 16 0.00 0.00
10:52 pm 22:52 Clear 48 8.9 34 1.1 58 58 Calm 30.10 1019 10 16 0.00 0.00
11:52 pm 23:52 Clear 43 6.1 33 0.6 68 68 S 3 6 30.11 1020 10 16 0.00 0.00

Powered by AerisWeather